Location: Banska Bystrica
(48.7330°N, 19.1500°E)
Time: 08:30:11
(UTC+02:00)

ISS - Pass Details

Date: 29 March 2019
Orbit: 408 x 410 km, 51.6° (Epoch: 25 April)

Event Time Altitude Azimuth Distance (km) Brightness Sun altitude
Rises 20:05:13 0° 283° (WNW) 2,337 1.4 -19.0°
Reaches altitude 10° 20:07:21 10° 289° (WNW) 1,475 0.2 -19.3°
Maximum altitude 20:10:35 51° 6° (N) 523 -3.2 -19.7°
Enters shadow 20:10:55 48° 30° (NNE) 542 -3.3 -19.8°
